GFSNW_sfc_temp_162.txt.gz
Temp
56 56 55 53 53 53 51 45 43 54 55 46 40 41 42 43 42 45 41 41 39 37 38 36 37 37 43 50 47 40 44 35 35 43 55 56 51 45 52 44 43 48 48 49
54 53 52 53 53 52 47 40 39 51 50 34 35 39 39 41 39 39 39 37 40 41 36 31 37 39 46 46 44 41 45 39 30 39 50 48 36 37 39 38 44 45 42 49
53 52 52 52 53 52 46 38 34 41 43 42 41 36 35 34 40 39 40 39 41 38 36 40 33 37 42 44 44 46 45 38 32 30 37 35 32 33 33 34 34 43 49 48
52 52 52 53 54 52 48 42 35 40 33 37 41 40 36 33 32 39 41 37 37 35 28 33 34 35 39 43 45 44 41 32 38 40 41 40 37 38 37 31 33 31 34 40
53 52 52 53 54 52 44 36 34 40 35 37 34 34 32 33 34 36 34 34 37 38 31 33 29 35 36 35 42 40 42 31 36 33 40 41 37 41 43 40 34 36 36 37
53 53 53 54 53 51 42 39 41 44 34 35 35 36 35 35 38 38 41 38 36 34 38 42 43 43 42 39 35 36 35 32 31 27 38 38 32 40 42 43 46 39 37 45
54 52 52 53 53 52 46 43 44 37 30 34 35 37 38 37 38 36 40 41 36 41 48 46 44 42 40 40 39 41 33 32 31 26 34 20 40 50 46 44 47 42 43 50
53 52 53 55 54 51 48 46 43 37 31 37 36 36 35 38 40 37 38 42 46 49 41 30 28 33 30 35 39 39 40 34 26 23 27 35 40 45 44 41 43 50 45 49
53 53 54 56 55 52 50 47 48 42 34 33 43 38 38 35 35 35 37 45 49 45 34 30 23 24 30 29 34 40 38 36 28 28 21 20 41 49 50 48 36 50 52 51
55 55 55 56 55 52 51 48 50 43 33 42 42 36 36 40 37 35 38 39 39 43 30 26 26 28 35 27 30 31 30 27 24 27 24 33 47 49 49 35 38 50 52 52
55 54 55 55 55 53 51 48 50 46 35 42 43 45 40 39 39 32 40 36 36 32 27 29 31 29 34 33 37 35 31 26 25 27 25 25 51 46 41 49 51 52 51 52
53 54 55 55 56 54 52 45 49 52 41 42 48 49 51 49 48 42 40 36 36 38 31 34 33 31 34 34 29 42 31 36 33 30 35 48 48 50 53 54 53 52 52 53
51 51 52 54 55 55 51 47 47 45 38 37 38 39 47 52 51 53 35 39 42 38 41 33 32 28 33 27 33 36 42 45 37 37 43 46 49 52 54 54 52 54 55 55
52 51 51 52 53 52 52 44 45 44 36 31 40 48 46 52 52 49 48 45 47 43 36 32 31 30 36 34 35 33 39 41 40 41 45 48 50 51 54 55 55 53 55 55
54 53 51 50 52 52 49 46 44 45 38 32 38 43 47 49 49 47 46 44 42 37 32 31 31 38 36 40 36 34 43 40 37 39 48 47 50 56 57 54 54 56 53 54
53 53 54 52 50 49 40 33 37 44 41 33 30 44 42 46 47 44 43 43 41 36 34 34 36 41 37 31 32 43 46 47 49 46 51 51 54 57 58 55 55 56 55 55
52 53 53 52 51 44 38 38 43 43 43 33 31 35 43 42 43 43 42 43 38 38 34 33 38 38 37 33 31 41 46 48 50 51 50 47 51 50 56 55 55 54 55 55
52 52 53 52 51 44 39 44 46 46 37 38 28 30 37 43 39 36 40 37 35 35 34 38 35 39 36 29 40 45 46 47 48 49 51 50 53 54 53 55 53 51 51 52
51 51 49 41 37 35 39 48 46 45 39 30 28 27 29 41 39 38 35 37 29 39 32 34 36 34 28 37 42 44 46 45 45 48 49 49 48 49 50 51 50 49 50 52
48 42 36 32 34 46 46 38 35 35 34 34 28 37 32 39 35 32 33 34 32 28 35 39 31 34 42 45 47 48 48 47 45 41 42 45 45 47 48 49 51 52 52 52
37 34 33 39 47 40 37 29 28 29 27 31 34 36 35 42 35 33 34 31 32 25 33 31 33 34 42 48 48 48 49 47 47 45 47 48 48 48 48 49 51 51 53 52
38 40 41 40 34 30 28 25 27 28 29 32 32 34 37 38 40 34 31 30 28 23 34 29 29 39 45 46 45 46 46 45 45 47 47 47 48 49 49 49 50 52 53 53
41 37 31 30 26 22 21 18 23 25 33 34 33 30 33 33 33 30 29 25 26 37 27 27 36 44 46 45 45 45 47 46 46 46 46 47 47 49 48 48 51 52 52 53
31 27 20 24 21 25 26 29 31 35 35 34 36 32 32 34 29 32 25 31 30 25 24 29 40 44 44 44 44 43 43 44 43 44 46 46 44 44 48 49 51 51 51 53
27 28 21 20 29 28 30 31 32 34 37 35 33 33 33 30 27 29 29 24 23 26 29 39 43 42 41 42 42 43 43 42 42 43 43 43 41 41 45 50 51 52 52 52
28 27 25 28 29 26 28 31 31 35 36 37 37 29 27 26 26 23 25 24 23 32 37 41 41 41 41 42 43 43 43 43 43 42 42 41 40 39 44 48 49 50 51 51
27 27 32 32 32 32 30 34 35 37 33 29 30 25 23 29 24 23 31 29 36 41 40 41 41 41 42 43 42 42 43 42 43 42 42 43 42 42 43 44 46 47 49 50

GFSNW_sfc_temp_165.txt.gz
Temp
59 57 57 56 55 54 51 48 41 58 63 51 51 46 45 46 46 49 46 45 43 42 42 40 40 41 46 53 49 41 47 40 35 41 53 56 53 43 41 33 41 47 49 52
56 56 55 54 53 52 45 42 47 58 58 38 40 44 44 46 43 44 42 42 44 45 40 34 41 42 49 49 46 42 45 39 30 36 46 52 41 37 37 37 36 37 41 49
55 54 53 52 51 50 47 41 37 49 51 50 48 43 42 40 45 43 44 43 45 41 40 43 38 40 46 46 45 47 45 37 32 27 34 40 35 33 35 35 29 29 33 36
54 53 52 51 51 50 48 47 41 47 36 41 46 47 44 40 36 43 45 41 41 39 32 36 37 42 42 45 47 47 44 32 38 39 42 42 41 40 36 33 34 30 34 31
53 52 51 50 51 51 45 39 39 44 40 45 41 40 39 39 42 41 40 39 42 42 35 37 33 39 39 38 44 42 45 33 37 33 40 41 38 42 43 41 40 35 37 36
53 52 51 50 51 51 43 46 46 47 39 41 40 40 40 40 44 44 46 44 41 38 41 46 46 46 45 44 40 38 37 34 31 26 37 37 31 40 42 44 47 45 35 43
54 53 52 51 51 50 48 51 50 41 34 40 41 44 45 43 44 42 45 46 41 45 52 50 47 45 44 44 42 44 35 32 32 26 32 18 38 49 49 47 48 51 50 46
55 53 52 53 51 51 50 50 49 41 34 43 44 43 43 45 46 42 43 46 50 53 46 33 30 36 36 39 44 43 43 35 26 22 25 33 38 45 45 44 43 52 51 51
54 53 52 53 52 52 52 52 55 50 36 38 48 43 45 40 40 41 43 49 52 48 37 30 24 26 33 32 37 47 44 41 30 28 21 20 39 47 55 53 37 54 55 53
53 53 52 53 53 53 52 52 53 50 37 49 48 43 42 48 45 41 44 43 42 47 32 27 28 29 39 30 31 33 32 31 25 27 23 33 46 47 53 35 40 55 55 56
52 53 53 54 54 54 52 51 54 50 39 47 50 51 46 46 45 37 44 39 40 36 29 31 33 31 36 34 39 36 33 28 28 30 24 23 51 49 41 48 55 55 55 55
52 54 54 54 54 54 54 50 54 56 44 46 54 54 56 54 52 47 45 41 42 43 35 37 37 32 36 35 29 40 28 38 33 33 36 47 48 46 54 57 55 55 55 56
51 51 50 51 53 54 53 52 52 50 41 41 42 43 53 57 56 58 39 42 46 43 47 37 34 29 36 29 34 37 44 47 38 39 45 48 49 52 54 56 57 58 58 58
53 51 50 51 51 52 52 47 50 47 40 32 42 55 49 56 56 54 53 50 51 48 38 32 32 31 40 35 38 37 41 43 40 40 46 49 52 52 55 57 58 58 58 58
54 54 52 51 50 50 49 47 47 51 43 35 41 49 52 54 54 52 52 49 47 41 34 31 31 39 37 41 41 37 45 41 37 35 47 43 50 54 58 56 56 58 57 57
53 53 53 53 52 49 40 33 38 47 46 34 31 46 46 49 50 49 48 48 46 42 36 35 38 44 37 32 33 45 49 51 50 46 52 52 54 56 58 57 57 58 57 58
52 53 52 52 53 44 37 37 43 45 41 33 30 33 43 46 46 46 46 46 42 38 35 35 39 39 39 35 32 44 49 51 52 53 52 48 52 50 57 58 58 58 58 57
51 51 52 51 51 45 40 44 46 44 36 35 29 31 36 44 38 37 43 37 38 36 36 40 37 40 39 30 42 47 50 51 51 51 53 52 54 55 54 57 56 54 54 55
51 51 50 44 38 35 38 47 46 44 40 31 32 30 29 43 41 39 36 37 30 40 32 36 38 35 30 39 44 46 49 49 49 51 51 51 50 51 53 54 54 52 53 55
49 45 40 33 36 44 45 39 34 34 35 38 32 40 33 41 39 33 34 36 32 27 36 42 32 34 44 47 49 51 51 52 52 46 45 46 47 50 52 52 54 54 55 55
38 36 36 40 44 39 35 30 30 31 28 33 37 38 37 46 37 35 38 33 33 26 35 33 33 35 44 51 52 54 54 53 52 51 51 50 48 49 50 51 53 54 55 54
41 39 39 38 35 32 29 27 30 29 29 34 33 36 41 43 46 38 35 30 32 25 39 31 29 42 49 51 51 52 52 50 49 50 48 49 49 51 51 51 52 53 54 55
44 37 32 31 29 24 24 20 26 28 35 36 36 32 37 38 39 35 33 27 27 39 29 29 38 46 50 51 51 50 50 50 49 49 50 50 50 50 49 47 50 53 53 55
33 29 23 26 23 28 30 31 33 38 40 38 39 33 33 36 32 32 27 33 33 26 26 30 43 47 50 51 50 48 48 48 48 48 48 48 48 47 47 44 46 50 51 53
31 31 24 25 33 35 37 37 36 39 42 40 34 35 35 31 29 31 29 25 24 30 31 41 48 48 47 46 47 47 47 48 47 47 46 46 47 46 43 44 44 49 52 53
31 30 28 34 33 30 34 37 35 40 40 40 39 30 28 28 28 25 26 26 26 34 42 46 47 46 46 46 47 48 48 47 47 47 46 46 45 43 41 41 42 49 52 53
30 30 38 39 40 35 36 41 40 42 36 32 32 26 26 33 26 24 34 32 38 44 46 47 46 45 46 47 47 47 46 46 46 46 47 45 45 42 40 38 42 47 50 52

GFSNW_sfc_temp_168.txt.gz
Temp
61 61 61 58 56 55 51 44 36 51 57 41 48 42 48 48 47 50 46 47 44 41 41 39 39 39 44 50 48 39 44 36 29 35 46 49 46 42 38 30 31 33 33 36
61 60 58 56 55 55 45 38 39 50 51 32 37 45 44 48 45 46 44 43 45 45 39 34 40 41 49 49 44 40 42 34 22 28 38 46 39 38 36 33 34 29 28 35
59 57 56 55 55 53 45 37 32 38 41 47 44 40 41 39 47 46 47 45 45 41 38 42 37 39 45 48 45 47 44 34 28 20 27 34 30 34 36 35 26 27 28 33
57 55 54 53 53 52 44 39 35 44 32 40 44 47 44 40 36 45 46 41 41 40 31 35 35 40 42 46 48 45 41 30 33 35 38 37 35 36 37 32 34 28 32 33
54 53 52 51 50 49 42 34 34 40 39 43 39 40 39 40 41 41 39 39 43 43 35 37 32 38 38 36 42 39 41 28 33 29 36 36 34 38 39 39 38 36 37 35
54 53 52 51 50 47 39 41 42 40 36 37 36 38 40 42 45 45 47 44 42 39 41 45 45 44 42 40 36 35 34 30 27 21 32 32 25 34 37 39 42 41 33 41
55 54 53 52 50 48 44 41 41 35 30 37 38 44 45 43 45 41 45 46 41 46 51 49 46 43 42 41 40 41 32 30 29 21 26 13 32 43 43 40 43 45 46 47
55 55 53 52 50 50 44 44 40 36 32 39 41 44 44 45 47 44 44 47 49 51 45 30 27 31 33 36 40 40 40 33 23 19 20 28 34 40 39 38 36 47 46 48
56 55 53 52 50 49 45 43 44 44 34 36 47 44 44 39 39 40 43 50 51 47 35 28 17 21 28 28 35 44 35 37 28 22 18 16 34 44 47 46 32 49 50 49
54 54 53 52 51 50 46 46 50 46 35 45 48 41 40 47 43 37 43 43 42 45 30 25 24 25 36 26 28 29 28 28 23 23 22 27 41 46 47 28 32 50 51 50
54 54 53 53 53 51 46 44 50 46 37 44 50 50 45 45 43 34 43 38 38 33 25 26 29 28 32 30 35 32 29 23 22 26 21 21 43 42 31 39 46 48 49 49
52 51 52 53 53 52 51 45 52 52 41 43 52 54 56 54 52 44 42 39 38 38 31 33 33 30 33 31 24 39 26 31 28 28 30 43 47 42 46 48 48 48 49 51
53 52 51 51 52 53 50 46 50 48 41 41 43 43 53 57 56 57 36 41 46 42 44 34 31 23 31 24 28 32 38 43 33 34 39 43 46 48 50 50 50 52 52 52
53 53 52 51 49 50 51 44 50 48 40 32 39 53 48 56 56 54 52 48 48 44 37 31 28 25 34 29 33 32 37 39 36 36 41 40 45 47 50 51 52 52 52 52
53 53 54 52 50 49 46 45 47 50 42 32 38 48 51 53 52 51 51 48 45 39 32 29 26 33 32 35 34 31 39 36 35 32 43 39 40 47 51 50 50 52 52 51
53 53 53 53 53 48 40 32 39 46 46 34 31 46 46 49 50 48 46 46 43 41 34 32 34 40 33 27 27 39 43 46 46 42 47 46 48 50 52 51 53 53 52 51
53 53 52 52 52 43 37 36 42 45 42 32 30 32 43 47 46 45 44 45 41 39 35 32 34 36 35 29 26 38 43 46 47 49 47 43 47 45 50 51 53 54 52 52
51 51 50 50 50 48 40 43 46 43 34 33 29 29 34 45 35 35 42 38 37 35 33 35 33 36 34 26 36 41 44 46 46 47 48 46 48 49 49 51 51 49 48 49
50 51 50 45 40 36 37 47 46 42 36 30 30 27 26 41 36 36 36 37 29 36 30 32 34 30 27 33 39 42 44 44 45 47 47 45 44 45 47 47 48 47 47 49
50 44 37 32 36 46 46 34 32 32 32 35 31 39 29 37 35 32 32 33 28 25 31 37 29 29 39 43 45 47 47 48 48 43 42 43 41 42 44 45 48 49 49 50
39 34 33 39 46 39 34 30 29 29 27 31 35 38 33 43 33 31 34 30 29 20 29 29 28 28 38 44 45 47 48 49 49 48 46 46 45 45 45 47 48 49 49 49
38 38 39 38 34 31 27 26 29 27 27 33 33 35 40 39 42 35 32 28 28 20 34 28 25 35 44 46 46 48 48 45 44 45 45 46 47 46 46 45 46 47 48 49
40 35 31 31 30 23 23 19 23 26 35 35 36 32 35 37 36 32 29 22 24 34 24 24 30 39 45 45 46 46 47 44 45 46 47 47 48 48 47 46 49 47 44 46
32 28 22 25 21 25 28 29 31 36 37 35 36 33 32 34 30 30 24 29 28 21 22 26 34 41 43 45 46 44 41 44 44 45 47 45 44 44 46 48 47 46 44 45
30 30 21 23 33 34 35 36 34 38 39 36 32 32 32 28 27 29 27 23 18 24 26 32 39 41 42 41 42 41 41 42 43 44 43 43 43 42 43 45 45 46 44 43
31 30 27 32 30 30 33 35 33 38 38 37 35 28 25 23 27 24 24 23 23 29 34 38 40 39 40 40 42 42 42 42 42 42 43 44 43 42 42 44 43 42 41 42
28 29 36 34 35 31 32 36 35 41 34 27 27 19 20 28 22 23 28 27 31 35 37 40 41 39 39 40 41 42 42 41 41 42 43 44 44 43 41 40 42 42 41 43

GFSNW_sfc_temp_171.txt.gz
Temp
61 61 61 62 58 55 53 45 35 50 53 38 38 34 44 49 46 48 45 45 43 39 39 36 35 37 41 46 44 37 41 31 23 29 39 44 42 36 34 24 26 29 29 32
60 60 61 60 55 55 46 39 39 48 48 31 32 42 44 47 44 45 44 41 45 44 38 32 37 39 46 45 43 38 39 27 14 23 31 37 31 35 37 34 30 27 24 31
60 59 59 55 55 55 45 38 32 35 37 38 35 35 38 38 46 45 46 44 45 40 37 40 35 37 44 45 44 47 42 28 20 15 22 27 25 30 33 32 25 24 25 28
56 56 56 54 53 50 45 40 35 38 29 31 34 41 41 36 35 43 44 40 41 38 27 31 33 37 38 40 44 39 36 23 27 30 33 33 31 31 32 27 30 25 29 30
55 54 53 53 50 50 42 35 34 35 34 37 33 36 36 38 37 39 38 37 41 40 31 33 30 34 30 29 34 32 34 23 28 24 32 32 29 32 33 33 33 32 34 33
55 54 54 53 53 50 39 39 40 37 34 33 31 32 35 38 41 42 45 43 39 37 39 40 38 37 35 34 31 29 27 25 20 17 27 27 20 30 32 34 37 35 28 37
55 55 54 54 52 50 42 40 38 33 30 32 33 36 35 38 42 40 44 44 38 42 46 43 39 37 35 35 35 35 26 23 26 17 21 9 28 38 39 36 38 40 41 42
55 55 55 54 53 49 43 43 39 34 30 34 33 34 36 42 44 41 42 43 43 45 39 21 18 23 26 31 34 33 34 26 21 16 15 24 30 36 37 35 34 42 40 43
56 56 55 54 51 48 43 42 43 39 32 31 40 37 41 35 33 36 40 43 44 41 26 18 8 13 21 23 29 36 32 33 25 21 17 14 31 40 45 41 28 39 42 42
55 56 56 54 50 49 44 42 44 40 32 40 41 36 38 41 36 30 35 37 36 38 19 12 14 17 29 20 22 23 20 18 15 20 20 24 36 41 44 25 28 41 44 43
53 54 54 53 51 51 45 43 45 40 33 39 46 48 41 40 36 27 35 30 29 22 15 17 21 21 25 24 27 25 22 15 12 14 14 18 41 41 34 39 43 44 44 46
53 52 50 51 52 51 48 40 47 48 38 38 48 49 50 50 47 38 35 33 32 30 21 22 24 23 24 24 18 29 20 26 21 24 27 39 41 40 46 44 45 45 45 46
54 52 52 52 51 51 49 42 44 43 37 35 38 39 48 52 51 49 30 31 39 35 34 24 19 14 21 14 20 22 30 35 30 29 34 36 40 43 46 47 48 47 50 48
53 53 54 52 51 50 47 43 45 42 36 29 33 48 41 49 49 48 45 42 41 36 30 19 14 15 23 18 25 24 29 33 29 29 34 37 40 44 44 47 49 48 50 50
52 52 53 53 53 50 43 42 44 45 37 28 32 43 47 48 47 46 45 42 36 30 25 19 19 26 25 24 25 23 31 31 26 25 37 35 37 45 46 46 46 49 47 47
53 53 53 53 52 47 40 33 39 43 43 33 29 40 41 43 44 43 42 41 36 33 29 24 28 33 26 14 17 30 36 38 40 37 42 41 43 45 49 47 48 49 48 49
52 52 52 51 51 39 37 36 40 44 42 32 30 30 39 45 42 39 38 40 35 33 30 27 27 29 30 23 21 32 37 39 41 44 41 39 42 40 45 46 49 50 48 47
52 51 50 49 49 45 38 42 45 44 34 32 28 28 32 42 31 31 39 35 35 33 31 28 26 29 26 18 30 34 38 40 40 41 44 43 43 42 44 46 46 45 44 46
51 49 49 41 38 35 35 47 45 42 35 29 29 26 23 37 32 34 33 34 28 33 26 28 29 23 20 29 31 35 38 38 39 42 42 42 42 41 42 42 43 42 43 44
48 43 36 32 36 46 45 37 33 33 32 32 29 34 27 35 32 30 30 31 27 23 26 30 22 22 36 36 38 38 41 42 41 37 37 38 38 39 40 41 43 45 44 45
38 34 33 39 45 37 34 27 25 28 25 29 31 34 28 38 29 29 32 27 25 11 22 24 22 21 33 38 40 42 44 45 45 44 43 42 42 41 40 41 43 44 44 44
38 37 38 34 33 25 22 15 27 25 24 28 28 32 35 35 38 30 30 26 26 15 29 23 19 27 37 39 40 42 44 43 42 43 43 42 43 42 42 42 42 43 44 44
40 34 31 29 28 17 12 10 12 20 26 29 32 30 31 33 32 30 24 16 20 29 15 18 24 32 40 39 40 42 42 43 43 42 41 42 43 44 43 42 44 44 43 43
30 27 22 22 17 16 16 18 20 28 28 27 32 27 28 31 28 27 21 23 22 14 17 21 27 33 36 38 40 41 40 41 40 40 42 42 42 41 43 43 43 43 42 44
27 25 12 15 24 21 26 24 25 31 35 32 27 28 28 24 23 22 21 18 14 19 22 26 31 34 37 36 38 37 37 38 39 39 40 40 40 40 40 41 41 41 42 42
24 21 18 26 25 20 23 28 29 31 35 33 30 22 20 16 18 15 20 18 19 24 26 30 32 33 36 36 37 37 37 36 37 38 39 40 40 40 40 41 41 41 44 42
23 23 29 27 27 23 25 31 33 35 29 18 18 12 16 22 19 16 23 23 26 28 29 32 33 33 34 35 36 37 37 37 36 36 38 40 42 41 39 38 41 43 43 44